Home   Weather   Buxar   Past weeks

Flag for India Past Weather in Buxar, Bihar, India — Yesterday and Last 2 Weeks

Now
82 °F

Passing clouds.


Feels Like: 92 °F
Forecast: 78 / 88 °F
Wind: 2 mph from North

Location: Lucknow / Amausi

Current Time: Sep 28, 2016 at 10:38:46 PM

Latest Report: Sep 28, 2016 at 10:00 PM


Visibility: 2 mi

Pressure: 29.71 "Hg

Humidity: 89%

Dew Point: 79 °F

Location of BuxarLocation

Past Weather in Buxar — Graph

°F

Buxar Temperature Yesterday

Maximum temperature yesterday: 91 °F (at 2:00 PM)
Minimum temperature yesterday: 77 °F (at 4:00 AM)
Average temperature yesterday: 83 °F

High & Low Weather Summary for the Past Weeks

 TemperatureHumidityPressure
High99 °F (Sep 20, 12:30 PM)100% (Sep 14, 12:00 AM)29.83 "Hg (Sep 14, 12:00 AM)
Low77 °F (Sep 14, 12:00 AM)59% (Sep 28, 2:00 PM)29.53 "Hg (Sep 20, 4:30 PM)
Average85 °F88%29.68 "Hg
* Reported Sep 13 8:30 PM — Sep 28 9:00 PM, Buxar, Weather by CustomWeather, © 2016

Note: Actual official high and low records may vary slightly from our data, if they occured in-between our weather recording intervals... More about our weather records

Advertising

Buxar Weather History for the Previous 24 Hours

Scroll right to see more
 ConditionsComfort  
Time TempWeatherWind HumidityBarometerVisibility
9:00 PM
Wed, Sep 28
82 °FPassing clouds.2 mph89%29.71 "Hg2 mi
8:30 PM82 °FPassing clouds.2 mph89%29.68 "Hg2 mi
8:00 PM84 °FPassing clouds.2 mph84%29.68 "Hg2 mi
7:30 PM84 °FPassing clouds.2 mph84%29.68 "Hg2 mi
7:00 PM86 °FPassing clouds.2 mph79%29.68 "Hg2 mi
6:30 PM86 °FPassing clouds.2 mph75%29.65 "Hg3 mi
6:00 PM88 °FScattered clouds.No wind70%29.65 "Hg3 mi
5:30 PM90 °FScattered clouds.No wind67%29.65 "Hg3 mi
5:00 PM91 °FScattered clouds.No wind63%29.62 "Hg3 mi
4:30 PM91 °FScattered clouds.2 mph63%29.62 "Hg3 mi
4:00 PM91 °FBroken clouds.2 mph67%29.62 "Hg3 mi
3:30 PM91 °FBroken clouds.5 mph63%29.65 "Hg3 mi
3:00 PM91 °FBroken clouds.2 mph67%29.65 "Hg3 mi
2:30 PM91 °FBroken clouds.2 mph63%29.65 "Hg2 mi
2:00 PM91 °FScattered clouds.3 mph59%29.65 "Hg2 mi
1:30 PM90 °FBroken clouds.6 mph71%29.65 "Hg2 mi
1:00 PM90 °FBroken clouds.5 mph67%29.68 "Hg2 mi
12:30 PM90 °FBroken clouds.7 mph71%29.71 "Hg2 mi
12:00 PM88 °FBroken clouds.5 mph75%29.71 "Hg2 mi
11:30 AM86 °FBroken clouds.5 mph75%29.71 "Hg2 mi
11:00 AM86 °FBroken clouds.5 mph79%29.74 "Hg2 mi
10:30 AM86 °FBroken clouds.6 mph84%29.74 "Hg2 mi
10:00 AM86 °FBroken clouds.6 mph84%29.74 "Hg2 mi
9:30 AM84 °FBroken clouds.N/A89%29.74 "Hg2 mi
9:00 AM84 °FBroken clouds.No wind89%29.74 "Hg2 mi
8:30 AM84 °FFog.No wind89%29.74 "Hg2 mi
7:30 AM82 °FFog.No wind94%29.74 "Hg1 mi
6:30 AM81 °FScattered clouds.No wind94%29.71 "Hg2 mi
6:00 AM79 °FPassing clouds.No wind100%29.68 "Hg2 mi
5:30 AM79 °FPassing clouds.No wind100%29.68 "Hg2 mi
5:00 AM79 °FPassing clouds.No wind100%29.68 "Hg2 mi
4:00 AM79 °FPassing clouds.No wind100%29.68 "Hg2 mi
3:00 AM79 °FPassing clouds.No wind94%29.68 "Hg2 mi
2:00 AM81 °FPassing clouds.No wind89%29.68 "Hg2 mi
1:00 AM81 °FPassing clouds.No wind94%29.71 "Hg2 mi
12:00 AM81 °FPassing clouds.No wind94%29.71 "Hg2 mi
11:00 PM
Tue, Sep 27
81 °FPassing clouds.No wind94%29.74 "Hg2 mi
10:00 PM82 °FPassing clouds.No wind89%29.71 "Hg2 mi
Weather by CustomWeather, © 2016

See weather overviewHow to use our weather pages